#timestamp,LO_Frequency,Hit,StdDev 
1591531215.7,286046999.4,N
1591531235.5,286046998.8,N
1591531255.3,286046998.3,N
1591531275.2,286046999.6,N
1591531295.0,286046998.4,N
1591531295.9,286046998.4,N
1591531315.8,286046998.3,N
1591531335.6,286046998.8,N
1591531355.4,286047001.0,N
1591531375.3,286047000.6,N
1591531395.1,286047000.5,N
1591531415.9,286047000.6,N
1591531435.7,286047001.2,N
1591531455.5,286046998.6,N
1591531475.4,286046998.6,N
1591531495.2,286046996.6,N
1591531515.0,286046999.1,N
1591531515.9,286046999.1,N
1591531535.8,286046998.5,N
1591531555.6,286047000.3,N
1591531575.5,286047000.5,N
1591531595.3,286047000.9,N
1591531615.1,286047000.0,N
1591531635.9,286047000.4,N
1591531655.7,286047001.0,N
1591531675.6,286047000.4,N
1591531695.4,286047002.7,N
1591531715.2,286046999.9,N
1591531735.1,286047002.3,N
1591531736.0,286047002.3,N
1591531755.8,286047002.3,N
1591531775.7,286047002.3,N
1591531795.5,286047002.2,N
1591531815.3,286047002.2,N
1591531835.2,286047002.5,N
1591531855.0,286047001.4,N
1591531855.9,286047001.4,N
1591531875.7,286047004.2,N
1591531895.6,286047003.5,N
1591531915.4,286047002.1,N
1591531935.3,286047002.1,N
1591531955.1,286047001.4,N
1591531975.9,286047001.5,N
1591531995.7,286047002.3,N
1591532015.5,286047002.6,N
1591532035.4,286047001.9,N
1591532055.2,286047004.4,Y
1591532075.1,286047002.3,P
1591532076.0,286047002.3,P
1591532095.8,286047002.7,P
1591532115.6,286047001.5,Y
1591532135.5,286047001.9,P
1591532155.3,286047000.0,N
1591532175.2,286047000.0,N
1591532195.9,286047000.8,N
1591532215.7,286047000.2,N
1591532235.6,286047000.3,N
1591532255.4,286047000.0,N
1591532275.3,286047002.6,Y
1591532295.1,286047000.2,P
1591532296.0,286047000.2,N
1591532315.8,286047002.8,P
1591532335.7,286047001.0,N
1591532355.5,286047000.0,N
1591532375.3,286047000.1,N
1591532395.2,286046999.9,N
1591532415.0,286047001.2,N
1591532415.9,286047001.2,N
1591532435.8,286046999.4,N
1591532455.6,286046998.1,N
1591532475.4,286047001.2,N
1591532495.3,286046998.1,N
1591532515.1,286047002.8,N
1591532535.9,286047002.0,N
1591532555.7,286046999.7,N
1591532575.5,286047002.2,N
1591532595.4,286047000.5,N
1591532615.2,286047001.9,N
1591532635.0,286047001.7,N
1591532636.0,286047001.7,N
1591532655.8,286047001.6,N
1591532675.6,286047003.7,N
1591532695.5,286047004.3,Y
1591532715.3,286047001.6,P
1591532735.1,286047002.1,P
1591532755.9,286047003.4,P
1591532775.7,286047005.8,Y
1591532795.6,286047002.5,P
1591532815.4,286047001.4,P
1591532835.2,286047002.4,P
1591532855.1,286047002.7,Y
1591532856.0,286047002.7,P
1591532875.8,286046998.2,P
1591532895.7,286046998.8,N
1591532915.5,286046998.7,N
1591532935.3,286046999.0,N
1591532955.2,286046996.5,N
1591532975.0,286046997.6,N
1591532975.9,286046997.6,N
1591532995.8,286046995.0,N
1591533015.6,286046997.7,N
1591533035.4,286046994.9,N
1591533055.3,286046998.7,N
1591533075.1,286047001.1,N
1591533095.8,286046998.8,N
1591533115.7,286046998.2,N
1591533135.5,286046998.8,N
1591533155.4,286046999.3,N
1591533175.2,286046999.6,N
1591533195.0,286046999.4,N
1591533195.9,286046999.4,N
1591533215.8,286046997.1,N
1591533235.6,286046997.1,N
1591533255.5,286046997.8,N
1591533275.3,286046999.1,N
1591533295.1,286046997.0,N
1591533315.9,286046997.3,N
1591533335.7,286046997.6,N
1591533355.5,286046998.8,N
1591533375.4,286046999.3,N
1591533395.2,286046998.2,N
1591533415.1,286046999.6,N
1591533416.0,286046999.6,N
1591533435.8,286046997.8,N
1591533455.6,286046997.6,N
1591533475.5,286046997.9,N
1591533495.3,286046994.9,Y
1591533515.2,286047000.8,P
1591533535.9,286047000.7,N
1591533555.7,286047000.7,N
1591533575.6,286047001.2,N
1591533595.4,286047001.0,N
1591533615.2,286047000.8,N
1591533635.1,286047002.3,N
1591533636.0,286047002.3,N
1591533655.8,286047002.0,N
1591533675.7,286047000.6,N
1591533695.5,286047001.0,N
1591533715.3,286047000.8,N
1591533735.2,286046996.5,Y
1591533755.0,286046997.7,P
1591533755.9,286046997.7,N
1591533775.8,286046997.8,N
1591533795.6,286046999.1,N
1591533815.4,286046997.4,N
1591533835.3,286046997.6,N
1591533855.1,286046997.0,N
1591533875.8,286046998.1,N
1591533895.7,286046999.0,N
1591533915.5,286046999.6,N
1591533935.4,286046999.5,N
1591533955.2,286046999.4,N
1591533975.0,286046998.3,N
1591533975.9,286046998.3,N
1591533995.8,286046998.2,N
1591534015.6,286047000.8,N
1591534035.5,286046998.2,N
1591534055.3,286046999.2,N
1591534075.1,286046996.5,Y
1591534095.9,286046998.2,P
1591534115.7,286046998.5,P
1591534135.5,286047001.1,P
1591534155.4,286047000.4,N
1591534175.2,286047002.0,N
1591534195.1,286047002.6,N
1591534196.0,286047002.6,N
1591534215.8,286047001.9,N
1591534235.6,286047002.5,N
1591534255.5,286047000.9,N
1591534275.3,286047000.7,N
1591534295.2,286046999.4,N
1591534315.9,286046999.3,N
1591534335.7,286046998.1,N
1591534355.6,286047000.4,N
1591534375.4,286047002.8,N
1591534395.2,286047000.8,N
1591534415.1,286046996.5,N
1591534416.0,286046996.5,N
1591534435.8,286046996.9,N
1591534455.7,286046997.4,N
1591534475.5,286046997.4,N
1591534495.3,286046997.2,N
1591534515.2,286046999.6,N
1591534535.0,286046999.3,N
1591534535.9,286046999.3,N
1591534555.8,286046998.6,N
1591534575.6,286046998.8,N
1591534595.4,286047000.8,N
1591534615.3,286047000.7,N
1591534635.1,286046998.3,N
1591534655.8,286047000.5,N
1591534675.7,286047000.7,N
1591534695.5,286047000.4,N
1591534715.4,286047001.0,N
1591534735.2,286047002.8,N
1591534755.0,286047002.5,N
1591534755.9,286047002.5,N
1591534775.8,286047000.2,N
1591534795.6,286046998.7,N
